Regional Weather Roundup
Issued by NWS Little Rock, AR

Home | Current Version | Previous Version | Text Only | Print | Product List | Glossary Off
Versions: 1 2 3 4 5 6 7 8 9 10 11 12 13 14 15 16 17 18 19 20 21 22 23 24 25 26 27 28 29 30 31 32 33 34 35 36 37 38 39 40 41 42 43 44 45 46 47 48 49 50

000
ASUS44 KLZK 162005
RWRLZK

WEATHER ROUNDUP FOR ARKANSAS
NATIONAL WEATHER SERVICE LITTLE ROCK AR
200 PM CST MON JAN 16 2017

NOTE: "FAIR" INDICATES FEW OR NO CLOUDS BELOW 12,000 FEET WITH NO
SIGNIFICANT WEATHER AND/OR OBSTRUCTIONS TO VISIBILITY.

ARZ001-003-010-029-162100-
NORTHWEST ARKANSAS

CITY           SKY/WX    TMP DP  RH WIND       PRES   REMARKS
FAYETTEVILLE   PTSUNNY   60  54  80 SW16      29.88F
FORT SMITH     MOSUNNY   61  55  81 CALM      29.89F
HARRISON       CLOUDY    58  58 100 S10       29.88F
BENTONVILLE    MOSUNNY  N/A N/A N/A SW21G29   29.87S
ROGERS         MOSUNNY   63  53  70 SW17G23   29.87F
SILOAM SPGS    PTSUNNY   63  50  63 SW18G25   29.87S
HIGHFILL       MOSUNNY   63  51  65 S16       29.86S
SPRINGDALE     MOSUNNY   63  52  67 SW17G29   29.89F
$$

ARZ004-005-016-162100-
NORTH CENTRAL ARKANSAS

CITY           SKY/WX    TMP DP  RH WIND       PRES   REMARKS
BATESVILLE     CLOUDY    61  59  94 S8        29.96F
FLIPPIN        CLOUDY    57  54  88 CALM      29.89F
MTN HOME       LGT RAIN  55  55 100 S6        29.90F FOG
$$

ARZ040-041-162100-
WEST CENTRAL ARKANSAS

CITY           SKY/WX    TMP DP  RH WIND       PRES   REMARKS
MENA           PTSUNNY   66  64  94 SW8       29.91F
MOUNT IDA      CLOUDY    66  63  90 VRB3      29.88F
$$

ARZ009-017-025-026-028-162100-
NORTHEAST ARKANSAS

CITY           SKY/WX    TMP DP  RH WIND       PRES   REMARKS
CORNING        CLOUDY    59  59 100 S7        29.99F
JONESBORO      CLOUDY    63  60  90 S13       29.99F
NEWPORT        CLOUDY    62  61  96 S21       29.97F
WALNUT RIDGE   CLOUDY    61  57  88 S12       29.98F
BLYTHEVILLE    CLOUDY    67  60  78 S9        30.02F
$$

ARZ022-023-033-042-044-162100-
CENTRAL ARKANSAS

CITY           SKY/WX    TMP DP  RH WIND       PRES   REMARKS
LITTLE ROCK    CLOUDY    64  63  96 S13       29.95F
N LITTLE ROCK    N/A     63  61  94 S9G20     29.96F
JACKSONVILLE   MOSUNNY   64  63  99 SE7       29.95F
SEARCY         CLOUDY    63  62  97 S13       29.98F
HOT SPRINGS    LGT RAIN  64  63  96 SE7       29.92F FOG
RUSSELLVILLE   LGT RAIN  60  59  96 CALM      29.90S FOG
CLINTON        CLOUDY    61  59  94 E3        29.92F FOG
$$

ARZ036-162100-
EAST ARKANSAS

CITY           SKY/WX    TMP DP  RH WIND       PRES   REMARKS
WEST MEMPHIS   CLOUDY    67  62  84 S14       30.01S
$$

ARZ050-053-066-070-073-162100-
SOUTHWEST ARKANSAS

CITY           SKY/WX    TMP DP  RH WIND       PRES   REMARKS
ARKADELPHIA    CLOUDY    66  63  90 S9        29.93F
CAMDEN         CLOUDY    72  63  73 S12G18    29.95F
TEXARKANA      RAIN      68  68 100 S10       29.92F
EL DORADO      CLOUDY    71  64  78 S10       29.96F
DE QUEEN       CLOUDY    64  59  83 SW6       29.91F
$$

ARZ056-057-069-162100-
SOUTHEAST ARKANSAS

CITY           SKY/WX    TMP DP  RH WIND       PRES   REMARKS
PINE BLUFF     CLOUDY    67  63  87 S18       29.98F
STUTTGART      CLOUDY    66  57  72 S20       29.99S
MONTICELLO     CLOUDY    67  63  87 S12       30.00F

$$





USA.gov is the U.S. government's official web portal to all federal, state and local government web resources and services.